#timestamp,LO_Frequency,Hit,StdDev 
1589072415.1,286047004.0,N
1589072435.9,286047002.8,N
1589072455.7,286047003.3,N
1589072475.6,286047005.6,Y
1589072495.4,286046999.9,P
1589072515.2,286047000.9,N
1589072535.1,286047000.3,N
1589072536.0,286047000.3,N
1589072555.8,286047004.2,Y
1589072575.7,286047002.8,P
1589072595.5,286046996.5,P
1589072615.3,286046998.4,N
1589072635.2,286047001.1,N
1589072655.0,286047000.0,N
1589072655.9,286047000.0,N
1589072675.7,286047001.2,N
1589072695.6,286046999.4,N
1589072715.4,286046998.3,N
1589072735.3,286046998.7,N
1589072755.1,286047002.4,N
1589072775.8,286047000.3,N
1589072795.7,286047000.3,N
1589072815.5,286047004.4,N
1589072835.4,286047000.5,N
1589072855.2,286046999.0,N
1589072875.0,286046998.7,N
1589072875.9,286046998.7,N
1589072895.8,286046999.7,N
1589072915.6,286047001.9,N
1589072935.4,286047002.3,N
1589072955.3,286047002.6,N
1589072975.1,286047002.0,N
1589072995.9,286047000.3,N
1589073015.7,286047001.7,N
1589073035.5,286047000.2,N
1589073055.4,286047002.6,N
1589073075.2,286047002.6,N
1589073095.1,286046999.9,N
1589073096.0,286046999.9,N
1589073115.8,286047004.3,N
1589073135.6,286047001.3,N
1589073155.5,286047003.7,N
1589073175.3,286047002.0,N
1589073195.1,286047004.4,N
1589073215.9,286047002.4,N
1589073235.7,286047000.0,N
1589073255.6,286046997.0,N
1589073275.4,286046996.5,N
1589073295.2,286046999.9,N
1589073315.1,286047001.3,N
1589073316.0,286047001.3,N
1589073335.8,286047005.5,N
1589073355.7,286047003.3,N
1589073375.5,286047003.8,N
1589073395.3,286047002.0,N
1589073415.2,286047003.9,N
1589073435.0,286047003.2,N
1589073435.9,286047003.2,N
1589073455.7,286047001.6,N
1589073475.6,286047001.7,N
1589073495.4,286047003.7,N
1589073515.3,286046997.7,N
1589073535.1,286047001.5,N
1589073555.8,286047001.3,N
1589073575.7,286047003.1,N
1589073595.5,286047003.0,N
1589073615.4,286047005.2,N
1589073635.2,286047003.8,N
1589073655.0,286047003.8,N
1589073655.9,286047003.8,N
1589073675.8,286047003.0,N
1589073695.6,286047003.3,N
1589073715.4,286047005.6,N
1589073735.3,286047003.3,N
1589073755.1,286047001.4,N
1589073775.9,286047003.9,N
1589073795.7,286047001.3,N
1589073815.5,286047002.2,N
1589073835.4,286047002.0,N
1589073855.2,286047001.9,N
1589073875.1,286047004.7,Y
1589073876.0,286047004.7,P
1589073895.8,286047002.5,N
1589073915.6,286046998.4,N
1589073935.5,286047000.9,N
1589073955.3,286046998.4,N
1589073975.1,286046997.3,N
1589073995.9,286046996.5,N
1589074015.7,286046998.0,N
1589074035.6,286046996.8,N
1589074055.4,286046998.4,N
1589074075.2,286046996.9,N
1589074095.1,286046998.9,N
1589074096.0,286046998.9,N
1589074115.8,286046998.5,N
1589074135.7,286047000.7,N
1589074155.5,286046998.8,N
1589074175.3,286046999.6,N
1589074195.2,286047000.3,N
1589074215.0,286046999.9,N
1589074215.9,286046999.9,N
1589074235.8,286047001.7,N
1589074255.6,286047011.9,Y
1589074275.4,286047000.0,P
1589074295.3,286047000.8,P
1589074315.1,286047000.5,N
1589074335.9,286047000.4,N
1589074355.7,286046999.6,N
1589074375.5,286046999.0,N
1589074395.4,286046998.3,N
1589074415.2,286046996.6,Y
1589074435.0,286047000.9,P
1589074436.0,286047000.9,N
1589074455.8,286046998.7,N
1589074475.6,286046996.7,Y
1589074495.5,286046997.2,P
1589074515.3,286046999.5,N
1589074535.1,286046998.7,N
1589074555.9,286047000.1,N
1589074575.7,286047000.7,N
1589074595.6,286047001.1,N
1589074615.4,286046998.2,N
1589074635.2,286046999.4,N
1589074655.1,286047000.3,N
1589074656.0,286047000.3,N
1589074675.8,286047002.5,N
1589074695.6,286046999.7,N
1589074715.5,286047001.7,N
1589074735.3,286047007.6,Y
1589074755.2,286047002.9,P
1589074775.0,286047004.7,P
1589074775.9,286047004.7,N
1589074795.8,286047005.8,N
1589074815.6,286047004.3,N
1589074835.4,286047003.6,N
1589074855.3,286047003.6,N
1589074875.1,286047003.3,N
1589074895.9,286047005.4,Y
1589074915.7,286047002.3,P
1589074935.5,286047002.0,N
1589074955.4,286047001.4,N
1589074975.2,286047000.3,N
1589074995.1,286047002.3,N
1589074996.0,286047002.3,N
1589075015.8,286047000.5,N
1589075035.6,286047001.1,N
1589075055.5,286046996.5,Y
1589075075.3,286046994.9,P
1589075095.2,286046995.1,N
1589075115.9,286046997.1,N
1589075135.7,286046996.2,N
1589075155.6,286046997.5,N
1589075175.4,286046996.2,N
1589075195.3,286046995.3,N
1589075215.1,286046995.7,N
1589075235.8,286046993.9,Y
1589075255.7,286046999.5,P
1589075275.5,286046996.7,N
1589075295.4,286046996.9,N
1589075315.2,286046995.6,Y
1589075335.0,286047001.2,P
1589075335.9,286047001.2,N
1589075355.8,286047002.7,N
1589075375.6,286047000.0,N
1589075395.5,286047001.1,N
1589075415.3,286046999.1,N
1589075435.1,286046997.7,N
1589075455.9,286046996.5,N
1589075475.7,286046996.6,N
1589075495.5,286046995.0,N
1589075515.4,286046997.4,N
1589075535.2,286046997.4,N
1589075555.1,286046995.1,N
1589075556.0,286046995.1,N
1589075575.8,286046995.4,N
1589075595.6,286046995.1,N
1589075615.5,286046995.1,N
1589075635.3,286046997.8,N
1589075655.2,286046996.5,N
1589075675.9,286046997.2,N
1589075695.7,286046994.9,N
1589075715.6,286046999.3,N
1589075735.4,286046997.9,N
1589075755.3,286046993.8,N
1589075775.1,286046995.2,N
1589075776.0,286046995.2,N
1589075795.8,286046996.2,N
1589075815.7,286046993.8,N
1589075835.5,286046995.2,N
1589075855.4,286046997.4,N
1589075875.2,286046997.8,N
1589075895.0,286046993.3,Y
1589075895.9,286046993.3,P
1589075915.8,286046996.6,N
1589075935.6,286046997.8,N
1589075955.4,286046997.7,N
1589075975.3,286046997.2,N
1589075995.1,286046997.4,N
